Weather History for Pompano Beach, FL

Change the Weather History Date:

Friday, July 19, 2013

  Actual Average Record
Temperature  
Mean Temperature 80 °F -  
Max Temperature 86 °F 91 °F 96 °F (1965)
Min Temperature 73 °F 74 °F 68 °F (1950)
Cooling Degree Days 14    
Growing Degree Days 30 (Base 50)    
Moisture  
Dew Point 75 °F    
Average Humidity 87    
Maximum Humidity 100    
Minimum Humidity 72    
Precipitation  
Precipitation 0.00 in - - ()
Sea Level Pressure  
Sea Level Pressure 30.10 in    
Wind  
Wind Speed 7 mph (ESE)    
Max Wind Speed 16 mph    
Max Gust Speed 22 mph    
Visibility 10 miles    
Events      
Averages and records for this station are not official NWS values.
T = Trace of Precipitation, MM = Missing Value Source: NWS Daily Summary

Daily Weather History Graph

Daily Weather History Graph

Search for Another Location

Airport:

Trip Planner

Search our weather history database for the weather conditions in past years. The results will help you decide how hot, cold, wet, or windy it might be!

Date:

Astronomy

Jul. 19, 2013 Rise Set
Actual Time 6:39 AM EDT 8:13 PM EDT
Civil Twilight 6:14 AM EDT 8:39 PM EDT
Nautical Twilight 5:43 AM EDT 9:09 PM EDT
Astronomical Twilight 5:11 AM EDT 9:41 PM EDT
Moon 5:15 PM EDT (7/19) 3:17 AM EDT (7/19)
Length of Visible Light 14h 25m
Length of Day
13h 34m
Waxing Gibbous, 86% of the Moon is Illuminated
Jul 19
Waxing Gibbous
Jul 22
Full
Jul 29
Last Quarter
Aug 6
New
Aug 14
First Quarter

Hourly Weather History & Observations

Time (EDT) Temp. Heat Index Dew Point Humidity Pressure Visibility Wind Dir Wind Speed Gust Speed Precip Events Conditions
12:53 AM 75.9 °F - 73.0 °F 91% 30.11 in 10.0 mi ESE 5.8 mph - N/A   Clear
1:53 AM 77.0 °F - 73.0 °F 88% 30.11 in 10.0 mi ESE 3.5 mph - N/A   Clear
2:53 AM 78.1 °F - 73.0 °F 84% 30.10 in 10.0 mi East 3.5 mph - N/A   Clear
3:53 AM 73.9 °F - 73.9 °F 100% 30.09 in 10.0 mi Calm Calm - N/A   Partly Cloudy
4:53 AM 73.0 °F - 73.0 °F 100% 30.10 in 10.0 mi NNW 4.6 mph - N/A   Partly Cloudy
5:33 AM 73.4 °F - 73.4 °F 100% 30.09 in 10.0 mi Calm Calm - N/A   Overcast
5:53 AM 73.9 °F - 73.9 °F 100% 30.10 in 10.0 mi North 3.5 mph - N/A   Mostly Cloudy
6:01 AM 73.4 °F - 73.4 °F 100% 30.09 in 10.0 mi North - - N/A   Scattered Clouds
6:53 AM 73.9 °F - 73.9 °F 100% 30.11 in - Calm Calm - N/A   Scattered Clouds
7:53 AM 79.0 °F - 75.9 °F 90% 30.12 in 10.0 mi ESE 8.1 mph - N/A   Clear
8:53 AM 82.0 °F 89.4 °F 75.9 °F 82% 30.13 in 10.0 mi SE 11.5 mph - N/A   Mostly Cloudy
9:53 AM 82.9 °F 91.8 °F 77.0 °F 82% 30.13 in 10.0 mi ESE 11.5 mph - N/A   Mostly Cloudy
10:53 AM 82.9 °F 90.8 °F 75.9 °F 79% 30.14 in 10.0 mi ESE 12.7 mph - N/A   Mostly Cloudy
11:53 AM 84.0 °F 92.6 °F 75.9 °F 76% 30.14 in 10.0 mi ESE 11.5 mph - N/A   Mostly Cloudy
12:53 PM 84.9 °F 94.1 °F 75.9 °F 74% 30.13 in 10.0 mi SE 12.7 mph - N/A   Mostly Cloudy
1:53 PM 84.9 °F 94.1 °F 75.9 °F 74% 30.11 in 10.0 mi North - - N/A   Mostly Cloudy
2:53 PM 86.0 °F 96.0 °F 75.9 °F 72% 30.09 in 10.0 mi SE 13.8 mph - N/A   Scattered Clouds
3:53 PM 84.0 °F 93.7 °F 77.0 °F 79% 30.08 in 10.0 mi SE 11.5 mph - N/A   Mostly Cloudy
4:53 PM - - - N/A% 30.08 in 10.0 mi SE 15.0 mph 21.9 mph N/A   Mostly Cloudy
5:53 PM - - - N/A% 30.08 in 10.0 mi SE 16.1 mph - N/A   Mostly Cloudy
6:00 PM - - - N/A% 30.06 in 10.0 mi ESE 10.4 mph - N/A   Mostly Cloudy
6:07 PM - - - N/A% 30.06 in 10.0 mi SE 10.4 mph - N/A   Mostly Cloudy
6:53 PM - - - N/A% 30.07 in 10.0 mi SE 13.8 mph - N/A   Mostly Cloudy
7:53 PM - - - N/A% 30.09 in 10.0 mi ESE 9.2 mph - N/A   Mostly Cloudy
8:53 PM - - - N/A% 30.10 in 10.0 mi ESE 8.1 mph - N/A   Clear
9:53 PM - - - N/A% 30.12 in 10.0 mi ESE 11.5 mph - N/A   Partly Cloudy
10:53 PM - - - N/A% 30.14 in 10.0 mi ESE 10.4 mph - N/A   Partly Cloudy
11:53 PM - - - N/A% 30.14 in 10.0 mi SE 8.1 mph - N/A   Partly Cloudy